Location: Firestone Park
(33.9631°N, 118.2326°W)
Time: 13:59:48
(UTC+00:00)

Cosmos-2242 - Visible Passes

Search period start: 14 September 2024 00:00
Search period end: 24 September 2024 00:00
Orbit: 578 x 601 km, 82.5° (Epoch: 13 September)

Date Brightness Start Highest point End Pass type
(mag) Time Alt. Az. Time Alt. Az. Time Alt. Az.
14 Sep 6.1 11:41:50 10° ESE 11:43:57 14° E 11:46:06 10° NE visible
15 Sep 5.5 11:48:40 10° SE 11:51:51 21° E 11:55:03 10° NE visible
16 Sep 4.7 11:55:59 10° SSE 11:59:45 32° E 12:03:32 10° NNE visible
17 Sep 3.8 12:03:35 10° S 12:07:39 52° E 12:11:47 10° NNE visible
18 Sep 2.9 12:11:23 10° S 12:15:35 84° E 12:19:50 10° N visible
19 Sep 2.9 12:20:11 15° SSW 12:23:32 61° W 12:27:45 10° N visible
20 Sep 6.0 10:52:51 10° ESE 10:54:42 13° E 10:56:33 10° ENE visible
20 Sep 3.4 12:29:22 22° SW 12:31:30 38° W 12:35:28 10° N visible
21 Sep 5.4 11:01:46 19° ESE 11:02:27 20° E 11:05:31 10° NE visible
21 Sep 4.0 12:38:22 22° WSW 12:39:29 25° WNW 12:43:00 10° NNW visible
22 Sep 4.8 11:10:36 29° E 11:10:36 29° E 11:13:57 10° NNE visible
22 Sep 4.5 12:47:12 16° W 12:47:29 16° WNW 12:50:13 10° NW visible
23 Sep 4.4 11:19:19 35° NE 11:19:19 35° NE 11:22:07 10° NNE visible
23 Sep 5.0 12:55:54 11° WNW 12:55:54 11° WNW 12:56:30 10° WNW visible
